Weather History for KSKA - December, 2013

Change the Weather History Date:

Saturday, December 21, 2013

  Actual Average Record
Temperature  
Mean Temperature 22 °F -  
Max Temperature 27 °F 30 °F 47 °F (2014)
Min Temperature 17 °F 21 °F -2 °F (1998)
Degree Days  
Heating Degree Days 43    
Moisture  
Dew Point 23 °F    
Average Humidity 96    
Maximum Humidity 100    
Minimum Humidity 86    
Precipitation  
Precipitation 0.00 in - - ()
Sea Level Pressure  
Sea Level Pressure 29.98 in    
Wind  
Wind Speed 4 mph (NE)    
Max Wind Speed 8 mph    
Max Gust Speed -    
Visibility 4 miles    
Events Fog , Rain , Snow    
Averages and records for this station are not official NWS values.
T = Trace of Precipitation, MM = Missing Value Source: NWS Daily Summary

Daily Weather History Graph

Daily Weather History Graph

Search for Another Location

Airport or City:

Trip Planner

Search our weather history database for the weather conditions in past years. The results will help you decide how hot, cold, wet, or windy it might be!

Date:

Astronomy

Dec. 21, 2013 Rise Set
Actual Time 7:36 AM PST 4:01 PM PST
Civil Twilight 7:00 AM PST 4:37 PM PST
Nautical Twilight 6:20 AM PST 5:17 PM PST
Astronomical Twilight 5:43 AM PST 5:54 PM PST
Moon 8:39 PM PST (12/21) 9:49 AM PST (12/21)
Length of Visible Light 9h 37m
Length of Day
8h 25m
Waning Gibbous, 83% of the Moon is Illuminated
Dec 21
Waning Gibbous
Dec 25
Last Quarter
Jan 1
New
Jan 7
First Quarter
Jan 15
Full

Hourly Weather History & Observations

Time (PST) Temp. Windchill Dew Point Humidity Pressure Visibility Wind Dir Wind Speed Gust Speed Precip Events Conditions
12:18 AM 23.0 °F 15.8 °F 23.0 °F 100% 29.71 in 10.0 mi North 5.8 mph - N/A   Overcast
12:33 AM 23.0 °F 15.8 °F 23.0 °F 100% 29.71 in 10.0 mi NNE 5.8 mph - N/A   Overcast
12:58 AM 23.7 °F 17.8 °F 22.5 °F 95% 29.82 in 10.0 mi North 4.6 mph - N/A   Overcast
1:21 AM 23.0 °F 18.4 °F 23.0 °F 100% 29.74 in 10.0 mi NW 3.5 mph - N/A   Overcast
1:36 AM 23.0 °F 17.0 °F 23.0 °F 100% 29.75 in 10.0 mi NW 4.6 mph - N/A   Overcast
1:56 AM 23.0 °F 17.0 °F 23.0 °F 100% 29.76 in 10.0 mi NNW 4.6 mph - N/A   Overcast
1:58 AM 23.4 °F 18.9 °F 22.1 °F 95% 29.86 in 10.0 mi NNW 3.5 mph - 0.00 in   Overcast
2:24 AM 23.0 °F 18.4 °F 21.2 °F 93% 29.76 in 10.0 mi NNW 3.5 mph - N/A   Overcast
2:29 AM 23.0 °F 18.4 °F 21.2 °F 93% 29.77 in 10.0 mi NW 3.5 mph - N/A   Overcast
2:41 AM 23.0 °F - 21.2 °F 93% 29.77 in 10.0 mi North 1.2 mph - N/A   Overcast
2:58 AM 23.4 °F 16.2 °F 21.9 °F 94% 29.88 in 10.0 mi North 5.8 mph - 0.00 in   Overcast
3:20 AM 23.0 °F 18.4 °F 21.2 °F 93% 29.79 in 10.0 mi NW 3.5 mph - N/A   Overcast
3:25 AM 23.0 °F 17.0 °F 21.2 °F 93% 29.79 in 10.0 mi North 4.6 mph - N/A   Overcast
3:31 AM 23.0 °F - 21.2 °F 93% 29.80 in 10.0 mi NNW 2.3 mph - N/A   Overcast
3:58 AM 23.0 °F - 21.7 °F 95% 29.91 in 10.0 mi NNW 2.3 mph - 0.00 in   Overcast
4:01 AM 23.0 °F 18.4 °F 21.2 °F 93% 29.81 in 10.0 mi NW 3.5 mph - N/A   Overcast
4:27 AM 23.0 °F 17.0 °F 21.2 °F 93% 29.84 in 10.0 mi WNW 4.6 mph - N/A   Overcast
4:29 AM 23.0 °F 17.0 °F 21.2 °F 93% 29.84 in 10.0 mi WNW 4.6 mph - N/A   Overcast
4:36 AM 23.0 °F - 21.2 °F 93% 29.84 in 10.0 mi West 2.3 mph - N/A   Overcast
4:41 AM 23.0 °F - 21.2 °F 93% 29.84 in 10.0 mi WNW 2.3 mph - N/A   Overcast
4:58 AM 21.6 °F 16.8 °F 19.9 °F 93% 29.95 in 10.0 mi WNW 3.5 mph - 0.00 in   Overcast
5:18 AM 21.2 °F 14.9 °F 19.4 °F 93% 29.85 in 10.0 mi West 4.6 mph - N/A   Overcast
5:58 AM 19.2 °F 14.1 °F 17.2 °F 92% 29.97 in 10.0 mi SW 3.5 mph - N/A   Overcast
6:43 AM 17.6 °F - 15.8 °F 93% 29.89 in 10.0 mi West 2.3 mph - N/A Snow Light Snow
6:54 AM 17.6 °F - 15.8 °F 93% 29.90 in 10.0 mi Calm Calm - N/A   Overcast
6:58 AM 18.3 °F - 16.2 °F 91% 30.01 in 10.0 mi Calm Calm - 0.00 in   Overcast
7:58 AM 18.5 °F - 16.7 °F 93% 30.03 in 10.0 mi NE 2.3 mph - N/A   Overcast
8:39 AM 19.4 °F - 17.6 °F 93% 29.94 in 10.0 mi SE 2.3 mph - N/A Snow Light Snow
8:54 AM 19.4 °F - 17.6 °F 93% 29.95 in 10.0 mi SW 2.3 mph - N/A   Overcast
8:58 AM 19.2 °F 14.1 °F 17.4 °F 93% 30.06 in 10.0 mi SSW 3.5 mph - 0.00 in   Overcast
9:41 AM 21.2 °F - 19.4 °F 93% 29.98 in 10.0 mi WNW 2.3 mph - N/A   Clear
9:53 AM 21.2 °F - 19.4 °F 93% 29.99 in 10.0 mi NNW 1.2 mph - N/A   Clear
9:58 AM 21.2 °F - 19.4 °F 93% 30.09 in 10.0 mi Calm Calm - 0.00 in   Clear
10:02 AM 23.0 °F - 19.4 °F 86% 29.99 in 10.0 mi Calm Calm - N/A   Partly Cloudy
10:22 AM 21.2 °F - 19.4 °F 93% 29.99 in 10.0 mi ENE 1.2 mph - N/A   Mostly Cloudy
10:32 AM 23.0 °F 18.4 °F 19.4 °F 86% 29.99 in 9.0 mi ESE 3.5 mph - N/A   Mostly Cloudy
10:37 AM 23.0 °F 14.7 °F 19.4 °F 86% 29.99 in 2.0 mi East 6.9 mph - N/A   Overcast
10:39 AM 23.0 °F 17.0 °F 19.4 °F 86% 29.98 in 1.2 mi East 4.6 mph - N/A   Overcast
10:40 AM 23.0 °F 18.4 °F 19.4 °F 86% 29.99 in 1.0 mi East 3.5 mph - N/A   Mist
10:42 AM 23.0 °F - 19.4 °F 86% 29.99 in 0.8 mi East 2.3 mph - N/A   Mist
10:43 AM 23.0 °F 17.0 °F 19.4 °F 86% 29.99 in 0.8 mi ESE 4.6 mph - N/A   Mist
10:45 AM 23.0 °F 17.0 °F 19.4 °F 86% 29.99 in 0.8 mi ESE 4.6 mph - N/A   Mist
10:47 AM 23.0 °F 17.0 °F 19.4 °F 86% 29.99 in 0.8 mi ESE 4.6 mph - N/A   Mist
10:49 AM 23.0 °F 17.0 °F 19.4 °F 86% 29.99 in 0.8 mi East 4.6 mph - N/A   Mist
10:54 AM 23.0 °F 18.4 °F 21.2 °F 93% 29.99 in 0.5 mi SE 3.5 mph - N/A Fog Light Freezing Fog
10:58 AM 23.0 °F 15.8 °F 21.2 °F 93% 30.09 in 0.5 mi ESE 5.8 mph - 0.00 in Fog Light Freezing Fog
10:59 AM 23.0 °F 14.7 °F 21.2 °F 93% 29.99 in 0.5 mi East 6.9 mph - N/A Fog Light Freezing Fog
11:09 AM 23.0 °F 15.8 °F 21.2 °F 93% 29.99 in 0.5 mi Variable 5.8 mph - N/A Fog Light Freezing Fog
11:12 AM 23.0 °F 15.8 °F 21.2 °F 93% 29.99 in 0.5 mi SE 5.8 mph - N/A Fog Light Freezing Fog
11:14 AM 23.0 °F 18.4 °F 23.0 °F 100% 29.99 in 0.8 mi SE 3.5 mph - N/A   Mist
11:16 AM 23.0 °F 15.8 °F 23.0 °F 100% 29.99 in 1.0 mi SSE 5.8 mph - N/A   Mist
11:17 AM 23.0 °F 15.8 °F 23.0 °F 100% 29.99 in 1.0 mi SE 5.8 mph - N/A   Mist
11:19 AM 23.0 °F 18.4 °F 23.0 °F 100% 29.99 in 1.2 mi SE 3.5 mph - N/A   Overcast
11:23 AM 23.0 °F 17.0 °F 23.0 °F 100% 29.99 in 1.5 mi ESE 4.6 mph - N/A   Overcast
11:25 AM 23.0 °F 17.0 °F 23.0 °F 100% 29.99 in 1.8 mi ESE 4.6 mph - N/A   Overcast
11:29 AM 23.0 °F 17.0 °F 23.0 °F 100% 29.99 in 2.0 mi SE 4.6 mph - N/A   Overcast
11:31 AM 23.0 °F 15.8 °F 23.0 °F 100% 29.99 in 2.5 mi SE 5.8 mph - N/A   Overcast
11:34 AM 24.8 °F 20.5 °F 23.0 °F 93% 29.99 in 2.5 mi ESE 3.5 mph - N/A   Overcast
11:40 AM 24.8 °F 20.5 °F 23.0 °F 93% 29.99 in 1.8 mi SE 3.5 mph - N/A   Overcast
11:45 AM 24.8 °F 16.9 °F 23.0 °F 93% 29.99 in 1.8 mi ESE 6.9 mph - N/A   Overcast
11:49 AM 24.8 °F 17.9 °F 23.0 °F 93% 29.99 in 1.5 mi ESE 5.8 mph - N/A   Overcast
11:53 AM 24.8 °F 16.9 °F 23.0 °F 93% 29.99 in 1.2 mi ESE 6.9 mph - N/A   Overcast
11:58 AM 24.8 °F 17.9 °F 23.0 °F 93% 30.09 in 1.2 mi SE 5.8 mph - 0.00 in   Overcast
12:02 PM 24.8 °F 17.9 °F 23.0 °F 93% 29.99 in 1.5 mi SSE 5.8 mph - N/A   Overcast
12:06 PM 24.8 °F 16.9 °F 24.8 °F 100% 30.00 in 1.5 mi SSE 6.9 mph - N/A   Overcast
12:08 PM 24.8 °F 16.9 °F 24.8 °F 100% 29.99 in 1.2 mi SSE 6.9 mph - N/A   Overcast
12:10 PM 24.8 °F 16.1 °F 24.8 °F 100% 29.99 in 1.5 mi SSE 8.1 mph - N/A   Overcast
12:12 PM 24.8 °F 16.1 °F 24.8 °F 100% 29.99 in 1.8 mi SSE 8.1 mph - N/A   Overcast
12:18 PM 24.8 °F 16.9 °F 24.8 °F 100% 29.99 in 2.0 mi SE 6.9 mph - N/A   Overcast
12:20 PM 24.8 °F 16.1 °F 24.8 °F 100% 29.99 in 1.8 mi SE 8.1 mph - N/A   Overcast
12:28 PM 24.8 °F 16.9 °F 24.8 °F 100% 29.99 in 2.0 mi SE 6.9 mph - N/A   Overcast
12:32 PM 24.8 °F 17.9 °F 24.8 °F 100% 29.99 in 2.5 mi SE 5.8 mph - N/A   Overcast
12:34 PM 24.8 °F 16.1 °F 24.8 °F 100% 29.99 in 3.0 mi SE 8.1 mph - N/A   Overcast
12:36 PM 24.8 °F 16.9 °F 24.8 °F 100% 29.99 in 2.5 mi SE 6.9 mph - N/A   Overcast
12:38 PM 24.8 °F 16.9 °F 24.8 °F 100% 29.99 in 2.0 mi ESE 6.9 mph - N/A   Overcast
12:46 PM 26.6 °F 19.1 °F 24.8 °F 93% 29.99 in 2.5 mi SE 6.9 mph - N/A   Overcast
12:48 PM 26.6 °F 19.1 °F 24.8 °F 93% 29.99 in 3.0 mi SE 6.9 mph - N/A   Overcast
12:58 PM 26.1 °F 17.6 °F 25.2 °F 96% 30.09 in 5.0 mi SSE 8.1 mph - 0.00 in   Overcast
1:58 PM 26.8 °F 21.4 °F 26.1 °F 97% 30.09 in 6.0 mi ESE 4.6 mph - N/A   Overcast
2:58 PM 27.1 °F 20.7 °F 26.4 °F 97% 30.10 in 8.0 mi SSE 5.8 mph - N/A   Overcast
3:40 PM 26.6 °F 21.2 °F 26.6 °F 100% 30.00 in 2.5 mi East 4.6 mph - N/A   Overcast
3:42 PM 26.6 °F 21.2 °F 26.6 °F 100% 30.00 in 2.0 mi East 4.6 mph - N/A   Overcast
3:48 PM 26.6 °F 21.2 °F 26.6 °F 100% 30.00 in 2.5 mi East 4.6 mph - N/A   Overcast
3:51 PM 26.6 °F 22.6 °F 26.6 °F 100% 30.00 in 3.0 mi ENE 3.5 mph - N/A   Overcast
3:58 PM 27.0 °F 23.0 °F 26.2 °F 97% 30.10 in 4.0 mi ENE 3.5 mph - 0.00 in   Overcast
4:58 PM 27.3 °F - 26.6 °F 97% 30.10 in 7.0 mi NE 2.3 mph - N/A   Overcast
5:58 PM 27.7 °F - 27.3 °F 99% 30.11 in 7.0 mi ENE 2.3 mph - N/A   Overcast
6:58 PM 27.7 °F 23.8 °F 27.1 °F 98% 30.13 in 5.0 mi North 3.5 mph - N/A   Overcast
7:48 PM 26.6 °F 21.2 °F 26.6 °F 100% 30.02 in 2.5 mi North 4.6 mph - N/A   Overcast
7:58 PM 26.6 °F 22.6 °F 25.9 °F 97% 30.13 in 2.5 mi NNW 3.5 mph - N/A   Overcast
8:14 PM 26.6 °F - 26.6 °F 100% 30.02 in 2.0 mi NNW 2.3 mph - N/A   Overcast
8:28 PM 26.6 °F 21.2 °F 26.6 °F 100% 30.02 in 1.8 mi North 4.6 mph - N/A   Overcast
8:34 PM 26.6 °F 21.2 °F 26.6 °F 100% 30.02 in 1.5 mi North 4.6 mph - N/A   Overcast
8:37 PM 26.6 °F 21.2 °F 26.6 °F 100% 30.02 in 1.5 mi North 4.6 mph - N/A   Light Freezing Drizzle
8:39 PM 26.6 °F 21.2 °F 26.6 °F 100% 30.02 in 1.2 mi North 4.6 mph - N/A   Light Freezing Drizzle
8:51 PM 26.6 °F 20.0 °F 26.6 °F 100% 30.03 in 1.0 mi North 5.8 mph - N/A   Light Freezing Drizzle
8:58 PM 27.0 °F 20.5 °F 26.2 °F 97% 30.14 in 1.0 mi North 5.8 mph - 0.00 in Rain Light Freezing Rain
9:06 PM 26.6 °F 20.0 °F 26.6 °F 100% 30.03 in 1.0 mi North 5.8 mph - N/A   Light Freezing Drizzle
9:27 PM 26.6 °F 20.0 °F 26.6 °F 100% 30.03 in 1.0 mi North 5.8 mph - N/A   Light Freezing Drizzle
9:43 PM 26.6 °F 21.2 °F 26.6 °F 100% 30.03 in 1.2 mi NNW 4.6 mph - N/A   Light Freezing Drizzle
9:46 PM 26.6 °F 21.2 °F 26.6 °F 100% 30.03 in 1.0 mi NNW 4.6 mph - N/A   Light Freezing Drizzle
9:58 PM 27.0 °F 23.0 °F 26.2 °F 97% 30.13 in 1.0 mi North 3.5 mph - 0.00 in   Light Freezing Drizzle
10:03 PM 26.6 °F 22.6 °F 26.6 °F 100% 30.03 in 0.8 mi North 3.5 mph - N/A   Light Freezing Drizzle
10:15 PM 26.6 °F - 26.6 °F 100% 30.03 in 0.8 mi North 2.3 mph - N/A   Mist
10:21 PM 26.6 °F 22.6 °F 26.6 °F 100% 30.03 in 0.8 mi North 3.5 mph - N/A   Mist
10:24 PM 26.6 °F 22.6 °F 26.6 °F 100% 30.03 in 0.8 mi North 3.5 mph - N/A   Mist
10:29 PM 26.6 °F 22.6 °F 26.6 °F 100% 30.04 in 0.8 mi North 3.5 mph - N/A   Mist
10:36 PM 26.6 °F 22.6 °F 26.6 °F 100% 30.04 in 0.8 mi North 3.5 mph - N/A   Mist
10:38 PM 26.6 °F 22.6 °F 26.6 °F 100% 30.04 in 0.8 mi North 3.5 mph - N/A   Mist
10:53 PM 26.6 °F - 26.6 °F 100% 30.04 in 0.8 mi North 1.2 mph - N/A   Mist
10:55 PM 26.6 °F - 26.6 °F 100% 30.04 in 0.8 mi Calm Calm - N/A   Mist
10:58 PM 27.0 °F - 26.2 °F 97% 30.14 in 0.8 mi Calm Calm - 0.00 in   Mist
11:05 PM 26.6 °F - 26.6 °F 100% 30.04 in 0.8 mi North 2.3 mph - N/A   Mist
11:07 PM 26.6 °F - 26.6 °F 100% 30.04 in 0.5 mi NNE 2.3 mph - N/A Fog Light Freezing Fog
11:17 PM 26.6 °F - 26.6 °F 100% 30.04 in 0.8 mi North 1.2 mph - N/A   Mist
11:26 PM 26.6 °F - 26.6 °F 100% 30.04 in 0.8 mi NNW 2.3 mph - N/A   Mist
11:41 PM 26.6 °F - 26.6 °F 100% 30.04 in 0.8 mi NNW 2.3 mph - N/A   Mist
11:46 PM 26.6 °F - 26.6 °F 100% 30.04 in 0.8 mi Calm Calm - N/A   Mist
11:50 PM 26.6 °F - 26.6 °F 100% 30.04 in 0.5 mi NNW 1.2 mph - N/A Fog Light Freezing Fog
11:52 PM 26.6 °F - 26.6 °F 100% 30.04 in 0.8 mi NNW 1.2 mph - N/A   Mist
11:55 PM 26.6 °F - 26.6 °F 100% 30.04 in 0.8 mi NNW 2.3 mph - N/A   Mist
11:58 PM 27.0 °F - 26.2 °F 97% 30.14 in 0.8 mi NNW 2.3 mph - N/A   Mist